TimeCDT,TemperatureF,Dew PointF,Humidity,Sea Level PressureIn,VisibilityMPH,Wind Direction,Wind SpeedMPH,Gust SpeedMPH,PrecipitationIn,Events,Conditions,WindDirDegrees,DateUTC
12:53 AM,57.0,51.1,81,29.88,10.0,SSE,10.4,-,N/A,,Clear,160,2013-09-24 05:53:00
1:53 AM,55.0,50.0,83,29.89,10.0,SE,8.1,-,N/A,,Clear,140,2013-09-24 06:53:00
2:53 AM,54.0,50.0,86,29.89,10.0,SE,8.1,-,N/A,,Partly Cloudy,140,2013-09-24 07:53:00
3:53 AM,53.1,50.0,89,29.89,10.0,SSE,8.1,-,N/A,,Clear,150,2013-09-24 08:53:00
4:53 AM,53.1,50.0,89,29.89,10.0,SSE,6.9,-,N/A,,Clear,150,2013-09-24 09:53:00
5:53 AM,53.1,50.0,89,29.90,10.0,SSE,5.8,-,N/A,,Clear,150,2013-09-24 10:53:00
6:53 AM,52.0,50.0,93,29.91,10.0,SSE,6.9,-,N/A,,Clear,160,2013-09-24 11:53:00
7:53 AM,53.1,50.0,89,29.93,10.0,SE,5.8,-,N/A,,Clear,140,2013-09-24 12:53:00
8:53 AM,55.0,51.1,86,29.94,10.0,SSE,8.1,-,N/A,,Clear,160,2013-09-24 13:53:00
9:53 AM,57.0,51.1,81,29.95,10.0,South,5.8,-,N/A,,Clear,190,2013-09-24 14:53:00
10:53 AM,60.1,52.0,75,29.96,10.0,South,6.9,-,N/A,,Clear,180,2013-09-24 15:53:00
11:53 AM,61.0,53.1,75,29.97,10.0,South,5.8,-,N/A,,Clear,180,2013-09-24 16:53:00
12:53 PM,63.0,53.1,70,29.96,10.0,Calm,Calm,-,N/A,,Clear,0,2013-09-24 17:53:00
1:53 PM,66.0,53.1,63,29.95,10.0,SSE,4.6,-,N/A,,Clear,150,2013-09-24 18:53:00
2:53 PM,69.1,54.0,58,29.94,10.0,SSE,4.6,-,N/A,,Clear,150,2013-09-24 19:53:00
3:53 PM,71.1,53.1,53,29.92,10.0,South,8.1,-,N/A,,Clear,170,2013-09-24 20:53:00
4:53 PM,71.1,53.1,53,29.92,10.0,South,6.9,-,N/A,,Partly Cloudy,180,2013-09-24 21:53:00
5:53 PM,69.1,54.0,58,29.93,10.0,South,4.6,-,N/A,,Clear,180,2013-09-24 22:53:00
6:53 PM,68.0,54.0,61,29.93,10.0,South,4.6,-,N/A,,Overcast,180,2013-09-24 23:53:00
7:53 PM,63.0,54.0,72,29.93,10.0,SSE,4.6,-,N/A,,Scattered Clouds,150,2013-09-25 00:53:00
8:53 PM,61.0,53.1,75,29.94,10.0,SE,4.6,-,N/A,,Clear,140,2013-09-25 01:53:00
9:53 PM,57.9,52.0,81,29.94,10.0,SSE,5.8,-,N/A,,Clear,150,2013-09-25 02:53:00
10:53 PM,57.0,52.0,83,29.94,10.0,SSE,4.6,-,N/A,,Clear,150,2013-09-25 03:53:00
11:53 PM,55.0,52.0,89,29.95,10.0,Calm,Calm,-,N/A,,Clear,0,2013-09-25 04:53:00